Regional Weather Roundup
Issued by NWS Sterling, VA

Home | Current Version | Previous Version | Graphics & Text | Print | Product List | Glossary On
Versions: 1 2 3 4 5 6 7 8 9 10 11 12 13 14 15 16 17 18 19 20 21 22 23 24 25 26 27 28 29 30 31 32 33 34 35 36 37 38 39 40 41 42 43 44 45 46 47 48 49 50
000
ASUS41 KLWX 010410
RWRLWX

REGIONAL WEATHER ROUNDUP
NATIONAL WEATHER SERVICE BALTIMORE MD/WASHINGTON DC
1200 AM EDT WED JUL 01 2015

Note: "FAIR" indicates few or no clouds below 12,000 feet
with no significant weather and/or obstructions to visibility.
 TC=TEMPERATURE CELSIUS

 * =Non NWS site. Station does not report precipitation (e.g. rain,
    snow, etc.), thunder, or fog.

DCZ001-MDZ009-015-VAZ040>042-051-053>054-010500-
WASHINGTON METRO

CITY           SKY/WX    TMP DP  RH WIND       PRES   REMARKS
WASHINGTON NAT CLOUDY    79  69  71 S7        29.81S
DULLES         CLOUDY    76  62  62 W6        29.83R
ANDREWS AFB    CLOUDY    75  72  90 S8        29.81S
FT BELVOIR     CLOUDY    72  70  92 VRB1      29.81S
QUANTICO       CLOUDY    79  71  76 S3        29.81S
COLLEGE PARK*  CLOUDY    73  70  88 CALM      29.81R
LEESBURG*      CLOUDY    70  64  83 W12G37    29.85R
MANASSAS*      CLOUDY    75  68  78 CALM      29.82S
GAITHERSBURG*  CLOUDY    70  63  78 W3        29.87R

$$

MDZ006>007-011-014-010500-
BALTIMORE METRO

CITY           SKY/WX    TMP DP  RH WIND       PRES   REMARKS
BWI AIRPORT    CLOUDY    75  70  84 CALM      29.80S
MD SCIENCE CTR   N/A     78  70  76 MISG      29.80F
MARTIN STATE   CLOUDY    75  73  94 S3        29.82S
ANNAPOLIS      CLOUDY    77  72  84 S10       29.80F
FORT MEADE*    CLOUDY    70  68  94 CALM      29.83S

$$

MDZ012-015-019>023-010500-
MARYLAND EASTERN SHORE

CITY           SKY/WX    TMP DP  RH WIND       PRES   REMARKS
OCEAN CITY     CLOUDY    78  72  81 S8        29.85F
SALISBURY      CLOUDY    75  71  87 S6        29.84F
BAY BRIDGE AP*   N/A     77  70  78 S7        29.81S
CAMBRIDGE*     CLOUDY    79  72  78 S6        29.82F
EASTON*        CLOUDY    77  73  88 S5        29.86S

$$

MDZ017>025-010500-
SOUTHERN MARYLAND

CITY           SKY/WX    TMP DP  RH WIND       PRES   REMARKS
PATUXENT RIVER CLOUDY    79  69  71 S20G38    29.84R THUNDER
ST INIGOES     CLOUDY    78  68  71 S18G31    29.84R THUNDER
LEONARDTOWN*   CLOUDY    77  68  73 S14G28    29.87R

$$

MDZ003>005-010500-
NORTH CENTRAL MARYLAND

CITY           SKY/WX    TMP DP  RH WIND       PRES   REMARKS
FREDERICK*     LGT RAIN  68  68 100 SE3       29.85S
HAGERSTOWN APT NOT AVBL
WESTMINSTER*   CLOUDY    66  64  94 N3        29.85S

$$

MDZ501>502-010500-
WESTERN MARYLAND

CITY           SKY/WX    TMP DP  RH WIND       PRES   REMARKS
OAKLAND*       MOCLDY    55 N/A N/A SW7       29.94S
CUMBERLAND*    MOCLDY    70  55  60 S5        29.89S

$$

VAZ025>031-010500-
SHENANDOAH VALLEY

CITY           SKY/WX    TMP DP  RH WIND       PRES   REMARKS
WINCHESTER*    CLOUDY    70  61  73 SW7       29.84S
FRONT ROYAL*   MOCLDY    64  63  94 SW6       29.85S
LURAY*         MOCLDY    70  68  94 W3        29.86F
NEW MARKET*    FAIR      67  65  94 CALM      29.86S
STAUNTON*      CLOUDY    68  65  91 CALM      29.92R
WAYNESBORO*    MOCLDY    67  64  89 CALM      29.91R

$$

WVZ021-048>050-054>055-010500-
EASTERN WEST VIRGINIA PANHANDLE

CITY           SKY/WX    TMP DP  RH WIND       PRES   REMARKS
MARTINSBURG    CLOUDY    66  64  93 S6        29.85R
PETERSBURG*    CLOUDY    66  58  73 CALM      29.88S

$$

VAZ036>039-050-010500-
CENTRAL FOOTHILLS

CITY           SKY/WX    TMP DP  RH WIND       PRES   REMARKS
CHARLOTTESVILL LGT RAIN  71  63  75 S12       29.87R
CULPEPER*      CLOUDY    74  66  75 NW10      29.85R
ORANGE*        TSTM      73  68  83 S23       29.90R
GORDONSVILLE*  FOG       70  66  88 SW9G26    29.89R VSB 3/4
WARRENTON*     MOCLDY    74  72  93 W5        29.83R

$$

VAZ055>057-010500-
NORTH AND CENTRAL PIEDMONT

CITY           SKY/WX    TMP DP  RH WIND       PRES   REMARKS
FREDERICKSBRG* HVY RAIN  79  71  76 S18       29.84R
STAFFORD*      CLOUDY    70  68  93 CALM      29.86R

$$

NCZ024-NYZ072-PAZ021-071-VAZ022-071-010500-
OTHER REGIONAL OBSERVATIONS

CITY           SKY/WX    TMP DP  RH WIND       PRES   REMARKS
NEW YORK CITY  CLOUDY    74  68  81 VRB7      29.87F
PHILADELPHIA   MOCLDY    74  70  87 CALM      29.82F
PITTSBURGH     MOCLDY    62  59  90 SW6       29.85S
ROANOKE        MOCLDY    66  62  87 N10       29.95S
RICHMOND       CLOUDY    73  66  78 S5        29.89R
RALEIGH        MOCLDY    70  66  87 SW9       29.94R

$$

ANZ530>537-010500-
MARINE OBSERVATIONS

STATION/POSITION TIME  TEMP    WIND        PRES
                       AIR SEA DIR/SP/G
                 (UTC) (F)     (DEG/KT/KT) (MB)
THOMAS PT LIGHT  0300   78 76  170/ 13/ 14 1010.0
BALT KEY BRIDGE  0300   77     150/  9/ 11 1008.9F
COVE POINT       0300   79     190/ 11/ 12 1010.7F
LEWISETTA        0300   80 80  210/ 13/ 18 1010.3R
SOLOMONS ISLAND  0300      80                N/A
PINEY POINT      0300          190/  9/ 10   N/A

$$




USA.gov is the U.S. government's official web portal to all federal, state and local government web resources and services.